Regional Weather Roundup
Issued by NWS Goodland, KS

Home | Current Version | Previous Version | Graphics & Text | Print | Product List | Glossary On
Versions: 1 2 3 4 5 6 7 8 9 10 11 12 13 14 15 16 17 18 19 20 21 22 23 24 25 26 27 28 29 30 31 32 33 34 35 36 37 38 39 40 41 42 43 44 45 46 47 48 49 50
000
ASUS43 KGLD 300259
RWRGLD

GOODLAND FORECAST AREA HOURLY WEATHER ROUNDUP
NATIONAL WEATHER SERVICE GOODLAND KS
900 PM MDT FRI APR 29 2016

...OFFICIAL OBSERVATIONS...

CITY           SKY/WX    TMP DP  RH WIND       PRES   REMARKS
GOODLAND KS    LGT SNOW N/A N/A N/A N10       29.84S
HILL CITY KS   LGT RAIN  43  41  93 N10       29.86S
IMPERIAL NEB   LGT SNOW  33  32  96 NE9       29.90R VSB 1
MCCOOK NEB     RAIN      38  35  89 NE10      29.89F FOG
AKRON CO       LGT SNOW  31  30  96 N10       29.89R VSB 1
BURLINGTON CO  CLOUDY    33  30  88 N10       29.86R FOG
LIMON CO       LGT SNOW  30  29  96 N9        29.89R FOG
$$

...UNOFFICIAL OBSERVATIONS...

CITY           SKY/WX    TMP DP  RH WIND       PRES   REMARKS
COLBY KS       DRIZZLE   34  34 100 N14       29.86S
GOVE KS          N/A     40  32  73 MISG        N/A
LENORA KS        N/A     41  32  70 MISG        N/A
NORTON KS      LGT RAIN  39  37  93 N8        29.87S
SHARON SPRINGS   N/A     34  32  93 N6          N/A
KIT CARSON CO    N/A     32  30  92 MISG        N/A
YUMA CO          N/A     32  31  96 CALM        N/A
$$




USA.gov is the U.S. government's official web portal to all federal, state and local government web resources and services.